• In Hungary
  • List of Countries
  • For 7 days
  • Water Temperature
  • Satellite Maps
  • Weather Map
  • News
  • Weather Widgets
  • user-avatar
    Login

    Hourly Weather Mekarzow

    Today, 24 September, Monday

    Time Temperature Precipitation Wind Pressure Humidity
    00:00 +14°C° 0.8 mm 10 mps 728 mmHg 77%
    01:00 +15°C° 0 mm 8 mps 728 mmHg 81%
    02:00 +12°C° 0.6 mm 9 mps 730 mmHg 81%
    03:00 +9°C° 0.6 mm 10 mps 731 mmHg 81%
    04:00 +7°C° 0.6 mm 11 mps 733 mmHg 81%
    05:00 +7°C° 0.1 mm 10 mps 734 mmHg 81%
    06:00 +7°C° 0.1 mm 9 mps 736 mmHg 80%
    07:00 +7°C° 0 mm 8 mps 737 mmHg 79%
    08:00 +7°C° 0.1 mm 9 mps 738 mmHg 76%
    09:00 +7°C° 0.1 mm 9 mps 739 mmHg 73%
    10:00 +7°C° 0.1 mm 9 mps 739 mmHg 71%
    11:00 +7°C° 0.1 mm 9 mps 740 mmHg 68%
    12:00 +8°C° 0.1 mm 9 mps 740 mmHg 65%
    13:00 +8°C° 0.1 mm 9 mps 741 mmHg 62%
    14:00 +8°C° 0.1 mm 9 mps 741 mmHg 61%
    15:00 +8°C° 0.1 mm 9 mps 741 mmHg 59%
    16:00 +10°C° 0.1 mm 9 mps 741 mmHg 57%
    17:00 +9°C° 0.1 mm 8 mps 742 mmHg 61%
    18:00 +8°C° 0.1 mm 7 mps 742 mmHg 65%
    19:00 +7°C° 0.1 mm 6 mps 742 mmHg 69%
    20:00 +7°C° 0 mm 6 mps 743 mmHg 70%
    21:00 +5°C° 0 mm 6 mps 743 mmHg 70%
    22:00 +5°C° 0 mm 6 mps 744 mmHg 71%
    23:00 +5°C° 0 mm 6 mps 744 mmHg 71%

    Tomorrow, 25 September, Tuesday

    Time Temperature Precipitation Wind Pressure Humidity
    00:00 +6°C° 0 mm 5 mps 745 mmHg 72%
    01:00 +5°C° 0 mm 5 mps 745 mmHg 73%
    02:00 +5°C° 0 mm 5 mps 746 mmHg 75%
    03:00 +5°C° 0 mm 5 mps 746 mmHg 76%
    04:00 +3°C° 0 mm 5 mps 746 mmHg 78%
    05:00 +3°C° 0 mm 6 mps 747 mmHg 77%
    06:00 +4°C° 0 mm 6 mps 748 mmHg 76%
    07:00 +4°C° 0 mm 6 mps 748 mmHg 76%
    08:00 +5°C° 0 mm 6 mps 749 mmHg 68%
    09:00 +8°C° 0 mm 6 mps 749 mmHg 61%
    10:00 +9°C° 0 mm 6 mps 750 mmHg 54%
    11:00 +10°C° 0.1 mm 7 mps 750 mmHg 50%
    12:00 +11°C° 0.1 mm 7 mps 750 mmHg 47%
    13:00 +11°C° 0.1 mm 7 mps 751 mmHg 43%
    14:00 +11°C° 0 mm 7 mps 751 mmHg 43%
    15:00 +11°C° 0 mm 6 mps 751 mmHg 42%
    16:00 +10°C° 0 mm 6 mps 751 mmHg 42%
    17:00 +9°C° 0 mm 5 mps 752 mmHg 47%
    18:00 +8°C° 0 mm 4 mps 752 mmHg 51%
    19:00 +8°C° 0 mm 3 mps 753 mmHg 56%
    20:00 +7°C° 0 mm 3 mps 753 mmHg 59%
    21:00 +7°C° 0 mm 2 mps 754 mmHg 61%
    22:00 +6°C° 0 mm 2 mps 754 mmHg 63%
    23:00 +6°C° 0 mm 2 mps 754 mmHg 64%

    Day after tomorrow, 26 September, Wednesday

    Time Temperature Precipitation Wind Pressure Humidity
    00:00 +5°C° 0 mm 2 mps 754 mmHg 65%
    01:00 +6°C° 0 mm 1 mps 754 mmHg 66%
    02:00 +5°C° 0 mm 2 mps 754 mmHg 67%
    03:00 +4°C° 0 mm 2 mps 754 mmHg 67%
    04:00 +4°C° 0 mm 2 mps 754 mmHg 68%
    05:00 +5°C° 0 mm 2 mps 754 mmHg 66%
    06:00 +5°C° 0 mm 2 mps 755 mmHg 65%
    07:00 +6°C° 0 mm 2 mps 755 mmHg 63%
    08:00 +8°C° 0 mm 3 mps 754 mmHg 56%
    09:00 +10°C° 0 mm 3 mps 754 mmHg 49%
    10:00 +12°C° 0 mm 4 mps 754 mmHg 43%
    11:00 +13°C° 0 mm 4 mps 753 mmHg 40%
    12:00 +13°C° 0 mm 4 mps 753 mmHg 38%
    13:00 +14°C° 0 mm 4 mps 752 mmHg 35%
    14:00 +14°C° 0 mm 4 mps 752 mmHg 37%
    15:00 +14°C° 0 mm 4 mps 751 mmHg 39%
    16:00 +14°C° 0 mm 4 mps 751 mmHg 40%
    17:00 +13°C° 0 mm 4 mps 751 mmHg 44%
    18:00 +12°C° 0 mm 3 mps 751 mmHg 47%
    19:00 +11°C° 0 mm 3 mps 751 mmHg 50%
    20:00 +11°C° 0 mm 4 mps 750 mmHg 50%
    21:00 +11°C° 0 mm 4 mps 750 mmHg 50%
    22:00 +10°C° 0 mm 5 mps 750 mmHg 49%
    23:00 +10°C° 0 mm 5 mps 750 mmHg 50%

    27 September, Thursday

    Time Temperature Precipitation Wind Pressure Humidity
    00:00 +9°C° 0 mm 5 mps 749 mmHg 50%
    01:00 +9°C° 0 mm 5 mps 749 mmHg 51%
    02:00 +9°C° 0 mm 5 mps 749 mmHg 50%
    03:00 +9°C° 0 mm 5 mps 749 mmHg 50%
    04:00 +9°C° 0 mm 5 mps 748 mmHg 50%
    05:00 +9°C° 0 mm 5 mps 748 mmHg 49%
    06:00 +10°C° 0 mm 6 mps 748 mmHg 49%
    07:00 +10°C° 0 mm 6 mps 748 mmHg 48%
    08:00 +13°C° 0 mm 6 mps 748 mmHg 47%
    09:00 +14°C° 0 mm 6 mps 748 mmHg 46%
    10:00 +16°C° 0 mm 6 mps 748 mmHg 45%
    11:00 +17°C° 0 mm 6 mps 748 mmHg 46%
    12:00 +19°C° 0 mm 6 mps 747 mmHg 47%
    13:00 +20°C° 0 mm 6 mps 747 mmHg 48%
    14:00 +20°C° 0 mm 6 mps 747 mmHg 51%
    15:00 +20°C° 0 mm 5 mps 747 mmHg 53%
    16:00 +20°C° 0 mm 5 mps 746 mmHg 55%
    17:00 +19°C° 0 mm 4 mps 746 mmHg 61%
    18:00 +17°C° 0 mm 3 mps 746 mmHg 67%
    19:00 +16°C° 0 mm 3 mps 746 mmHg 73%
    20:00 +14°C° 0 mm 3 mps 746 mmHg 75%
    21:00 +14°C° 0 mm 3 mps 746 mmHg 76%
    22:00 +14°C° 0 mm 2 mps 746 mmHg 78%
    23:00 +14°C° 0 mm 2 mps 745 mmHg 78%

    28 September, Friday

    Time Temperature Precipitation Wind Pressure Humidity
    00:00 +14°C° 0 mm 2 mps 745 mmHg 78%
    01:00 +13°C° 0 mm 2 mps 745 mmHg 78%
    02:00 +12°C° 0 mm 3 mps 744 mmHg 76%
    03:00 +12°C° 0 mm 3 mps 744 mmHg 75%
    04:00 +12°C° 0 mm 3 mps 743 mmHg 74%
    05:00 +12°C° 0 mm 3 mps 743 mmHg 72%
    06:00 +13°C° 0 mm 3 mps 743 mmHg 69%
    07:00 +13°C° 0 mm 3 mps 743 mmHg 67%
    08:00 +16°C° 0 mm 3 mps 743 mmHg 60%
    09:00 +18°C° 0 mm 4 mps 743 mmHg 53%
    10:00 +20°C° 0 mm 4 mps 743 mmHg 47%
    11:00 +21°C° 0 mm 4 mps 742 mmHg 44%
    12:00 +21°C° 0 mm 4 mps 742 mmHg 41%
    13:00 +22°C° 0 mm 4 mps 742 mmHg 38%
    14:00 +22°C° 0 mm 4 mps 741 mmHg 41%
    15:00 +21°C° 0 mm 4 mps 741 mmHg 44%
    16:00 +21°C° 0 mm 3 mps 741 mmHg 47%
    17:00 +19°C° 0 mm 3 mps 741 mmHg 54%
    18:00 +17°C° 0 mm 2 mps 741 mmHg 62%
    19:00 +15°C° 0 mm 2 mps 741 mmHg 69%
    20:00 +15°C° 0 mm 2 mps 741 mmHg 72%
    21:00 +14°C° 0 mm 2 mps 742 mmHg 76%
    22:00 +13°C° 0 mm 2 mps 742 mmHg 79%
    23:00 +13°C° 0.1 mm 2 mps 742 mmHg 79%

    29 September, Saturday

    Time Temperature Precipitation Wind Pressure Humidity
    00:00 +13°C° 0.1 mm 2 mps 742 mmHg 79%
    01:00 +13°C° 0.1 mm 2 mps 742 mmHg 79%
    02:00 +13°C° 0.8 mm 2 mps 742 mmHg 82%
    03:00 +11°C° 0.8 mm 3 mps 742 mmHg 85%
    04:00 +10°C° 0.8 mm 3 mps 742 mmHg 88%
    05:00 +10°C° 0.6 mm 3 mps 743 mmHg 88%
    06:00 +9°C° 0.6 mm 3 mps 743 mmHg 88%
    07:00 +9°C° 0.6 mm 3 mps 744 mmHg 87%
    08:00 +10°C° 0 mm 3 mps 744 mmHg 80%
    09:00 +11°C° 0 mm 3 mps 745 mmHg 72%
    10:00 +12°C° 0 mm 3 mps 745 mmHg 64%
    11:00 +12°C° 0 mm 3 mps 745 mmHg 60%
    12:00 +13°C° 0 mm 3 mps 745 mmHg 55%
    13:00 +13°C° 0 mm 3 mps 745 mmHg 50%
    14:00 +13°C° 0 mm 3 mps 746 mmHg 49%
    15:00 +13°C° 0 mm 3 mps 746 mmHg 48%
    16:00 +12°C° 0 mm 3 mps 746 mmHg 47%
    17:00 +11°C° 0 mm 3 mps 746 mmHg 50%
    18:00 +10°C° 0 mm 3 mps 746 mmHg 53%
    19:00 +9°C° 0 mm 2 mps 747 mmHg 56%
    20:00 +8°C° 0 mm 2 mps 747 mmHg 57%
    21:00 +8°C° 0 mm 2 mps 747 mmHg 58%
    22:00 +7°C° 0 mm 2 mps 747 mmHg 59%
    23:00 +7°C° 0 mm 2 mps 747 mmHg 60%
    Show more